COLUMBIA

Last updated on March 8, 2018, 12:16 a.m. UTC

1 42702U 98067LK  18066.37622415  .22640365  12480-4  12628-2 0  9994
2 42702  51.6147 131.6862 0001623 340.6009  19.7898 16.42105255 46241

Satellite is not in orbit.